contact:dominique.lefevre@mio.osupytheas.fr, maurice.libes@osupytheas.fr, didier.mallarino@osupytheas.fr
Project:EMSO http://www.emso-fr.org/EMSO-France
Depth: 2436.0 m
Title:EMSO Ligure Ouest : Data MII capteur MICROCAT
DateTime_Computer,Latitude,Longitude,Temperature,Conductivity,Pressure,DateTime_Instrument
DateTime_Computer,Latitude,Longitude,degC,S m-1,dbar,DateTime_Instrument
2023-12-12T00:01:23Z,42.805,6.029,13.3061,4.60184,2470.693,2023-12-12T02:03:53Z
2023-12-12T00:04:27Z,42.805,6.029,13.3058,4.60214,2470.693,2023-12-12T02:06:56Z
2023-12-12T00:07:30Z,42.805,6.029,13.3069,4.60233,2470.707,2023-12-12T02:09:59Z
2023-12-12T00:10:33Z,42.805,6.029,13.3065,4.60179,2470.717,2023-12-12T02:13:02Z
2023-12-12T00:13:36Z,42.805,6.029,13.3088,4.60192,2470.693,2023-12-12T02:16:05Z
2023-12-12T00:16:39Z,42.805,6.029,13.3092,4.60175,2470.73,2023-12-12T02:19:08Z
2023-12-12T00:19:42Z,42.805,6.029,13.3090,4.60221,2470.707,2023-12-12T02:22:11Z
2023-12-12T00:22:45Z,42.805,6.029,13.3096,4.60193,2470.693,2023-12-12T02:25:15Z
2023-12-12T00:25:48Z,42.805,6.029,13.3098,4.60187,2470.717,2023-12-12T02:28:18Z
2023-12-12T00:28:51Z,42.805,6.029,13.3101,4.60183,2470.693,2023-12-12T02:31:21Z
2023-12-12T00:31:54Z,42.805,6.029,13.3085,4.60183,2470.67,2023-12-12T02:34:24Z
2023-12-12T00:34:57Z,42.805,6.029,13.3076,4.60174,2470.707,2023-12-12T02:37:27Z
2023-12-12T00:38:00Z,42.805,6.029,13.3077,4.60196,2470.693,2023-12-12T02:40:30Z
2023-12-12T00:41:04Z,42.805,6.029,13.3088,4.60203,2470.67,2023-12-12T02:43:33Z
2023-12-12T00:44:07Z,42.805,6.029,13.3078,4.60225,2470.707,2023-12-12T02:46:36Z
2023-12-12T00:47:10Z,42.805,6.029,13.3061,4.60185,2470.693,2023-12-12T02:49:39Z
2023-12-12T00:50:13Z,42.805,6.029,13.3058,4.60192,2470.707,2023-12-12T02:52:42Z
2023-12-12T00:53:16Z,42.805,6.029,13.3055,4.60190,2470.73,2023-12-12T02:55:45Z
2023-12-12T00:56:19Z,42.805,6.029,13.3055,4.60233,2470.707,2023-12-12T02:58:48Z
2023-12-12T00:59:22Z,42.805,6.029,13.3057,4.60230,2470.646,2023-12-12T03:01:52Z
2023-12-12T01:02:25Z,42.805,6.029,13.3078,4.60181,2470.707,2023-12-12T03:04:55Z
2023-12-12T01:05:28Z,42.805,6.029,13.3058,4.60163,2470.684,2023-12-12T03:07:58Z
2023-12-12T01:08:31Z,42.805,6.029,13.3065,4.60208,2470.707,2023-12-12T03:11:01Z
2023-12-12T01:11:34Z,42.805,6.029,13.3077,4.60197,2470.717,2023-12-12T03:14:04Z
2023-12-12T01:14:37Z,42.805,6.029,13.3077,4.60212,2470.67,2023-12-12T03:17:07Z
2023-12-12T01:17:41Z,42.805,6.029,13.3073,4.60208,2470.67,2023-12-12T03:20:10Z
2023-12-12T01:20:44Z,42.805,6.029,13.3075,4.60223,2470.717,2023-12-12T03:23:13Z
2023-12-12T01:23:47Z,42.805,6.029,13.3078,4.60155,2470.693,2023-12-12T03:26:16Z
2023-12-12T01:26:50Z,42.805,6.029,13.3078,4.60198,2470.67,2023-12-12T03:29:19Z
2023-12-12T01:29:53Z,42.805,6.029,13.3078,4.60184,2470.684,2023-12-12T03:32:22Z
2023-12-12T01:32:56Z,42.805,6.029,13.3071,4.60176,2470.67,2023-12-12T03:35:25Z
2023-12-12T01:35:59Z,42.805,6.029,13.3054,4.60189,2470.693,2023-12-12T03:38:29Z
2023-12-12T01:39:02Z,42.805,6.029,13.3069,4.60181,2470.693,2023-12-12T03:41:32Z
2023-12-12T01:42:05Z,42.805,6.029,13.3069,4.60194,2470.67,2023-12-12T03:44:35Z
2023-12-12T01:45:08Z,42.805,6.029,13.3055,4.60179,2470.693,2023-12-12T03:47:38Z
2023-12-12T01:48:11Z,42.805,6.029,13.3067,4.60208,2470.717,2023-12-12T03:50:41Z
2023-12-12T01:51:14Z,42.805,6.029,13.3055,4.60221,2470.693,2023-12-12T03:53:44Z
2023-12-12T01:54:18Z,42.805,6.029,13.3061,4.60203,2470.74,2023-12-12T03:56:47Z
2023-12-12T01:57:21Z,42.805,6.029,13.3069,4.60210,2470.717,2023-12-12T03:59:50Z
2023-12-12T02:00:24Z,42.805,6.029,13.3056,4.60196,2470.73,2023-12-12T04:02:53Z
2023-12-12T02:03:27Z,42.805,6.029,13.3071,4.60205,2470.717,2023-12-12T04:05:56Z
2023-12-12T02:06:30Z,42.805,6.029,13.3058,4.60205,2470.717,2023-12-12T04:08:59Z
2023-12-12T02:09:33Z,42.805,6.029,13.3091,4.60201,2470.693,2023-12-12T04:12:02Z
2023-12-12T02:12:36Z,42.805,6.029,13.3078,4.60190,2470.693,2023-12-12T04:15:06Z
2023-12-12T02:15:39Z,42.805,6.029,13.3064,4.60181,2470.707,2023-12-12T04:18:09Z
2023-12-12T02:18:42Z,42.805,6.029,13.3080,4.60190,2470.754,2023-12-12T04:21:12Z
2023-12-12T02:21:45Z,42.805,6.029,13.3069,4.60187,2470.74,2023-12-12T04:24:15Z
2023-12-12T02:24:48Z,42.805,6.029,13.3056,4.60210,2470.717,2023-12-12T04:27:18Z
2023-12-12T02:27:51Z,42.805,6.029,13.3066,4.60190,2470.693,2023-12-12T04:30:21Z
2023-12-12T02:30:55Z,42.805,6.029,13.3067,4.60208,2470.74,2023-12-12T04:33:24Z
2023-12-12T02:33:58Z,42.805,6.029,13.3054,4.60207,2470.74,2023-12-12T04:36:27Z
2023-12-12T02:37:01Z,42.805,6.029,13.3060,4.60185,2470.74,2023-12-12T04:39:30Z
2023-12-12T02:40:04Z,42.805,6.029,13.3062,4.60211,2470.777,2023-12-12T04:42:33Z
2023-12-12T02:43:07Z,42.805,6.029,13.3063,4.60183,2470.726,2023-12-12T04:45:36Z
2023-12-12T02:46:10Z,42.805,6.029,13.3058,4.60192,2470.763,2023-12-12T04:48:39Z
2023-12-12T02:49:13Z,42.805,6.029,13.3066,4.60182,2470.74,2023-12-12T04:51:42Z
2023-12-12T02:52:16Z,42.805,6.029,13.3063,4.60189,2470.763,2023-12-12T04:54:46Z
2023-12-12T02:55:19Z,42.805,6.029,13.3058,4.60190,2470.777,2023-12-12T04:57:49Z
2023-12-12T02:58:22Z,42.805,6.029,13.3051,4.60167,2470.777,2023-12-12T05:00:52Z
2023-12-12T03:01:25Z,42.805,6.029,13.3054,4.60172,2470.717,2023-12-12T05:03:55Z
2023-12-12T03:04:28Z,42.805,6.029,13.3047,4.60150,2470.763,2023-12-12T05:06:58Z
2023-12-12T03:07:31Z,42.805,6.029,13.3051,4.60156,2470.74,2023-12-12T05:10:01Z
2023-12-12T03:10:35Z,42.805,6.029,13.3058,4.60174,2470.763,2023-12-12T05:13:04Z
2023-12-12T03:13:38Z,42.805,6.029,13.3049,4.60160,2470.787,2023-12-12T05:16:07Z
2023-12-12T03:16:41Z,42.805,6.029,13.3053,4.60178,2470.8,2023-12-12T05:19:10Z
2023-12-12T03:19:44Z,42.805,6.029,13.3060,4.60166,2470.763,2023-12-12T05:22:13Z
2023-12-12T03:22:47Z,42.805,6.029,13.3050,4.60166,2470.787,2023-12-12T05:25:16Z
2023-12-12T03:25:50Z,42.805,6.029,13.3049,4.60162,2470.824,2023-12-12T05:28:19Z
2023-12-12T03:28:53Z,42.805,6.029,13.3051,4.60178,2470.787,2023-12-12T05:31:23Z
2023-12-12T03:31:56Z,42.805,6.029,13.3054,4.60181,2470.8,2023-12-12T05:34:26Z
2023-12-12T03:34:59Z,42.805,6.029,13.3059,4.60189,2470.787,2023-12-12T05:37:29Z
2023-12-12T03:38:02Z,42.805,6.029,13.3051,4.60161,2470.8,2023-12-12T05:40:32Z
2023-12-12T03:41:05Z,42.805,6.029,13.3051,4.60153,2470.833,2023-12-12T05:43:35Z
2023-12-12T03:44:08Z,42.805,6.029,13.3052,4.60162,2470.787,2023-12-12T05:46:38Z
2023-12-12T03:47:12Z,42.805,6.029,13.3050,4.60147,2470.81,2023-12-12T05:49:41Z
2023-12-12T03:50:15Z,42.805,6.029,13.3058,4.60149,2470.787,2023-12-12T05:52:44Z
2023-12-12T03:53:18Z,42.805,6.029,13.3063,4.60182,2470.81,2023-12-12T05:55:47Z
2023-12-12T03:56:21Z,42.805,6.029,13.3046,4.60164,2470.81,2023-12-12T05:58:50Z
2023-12-12T03:59:24Z,42.805,6.029,13.3047,4.60148,2470.824,2023-12-12T06:01:53Z
2023-12-12T04:02:27Z,42.805,6.029,13.3056,4.60180,2470.787,2023-12-12T06:04:56Z
2023-12-12T04:05:30Z,42.805,6.029,13.3063,4.60168,2470.847,2023-12-12T06:08:00Z
2023-12-12T04:08:33Z,42.805,6.029,13.3065,4.60156,2470.787,2023-12-12T06:11:03Z
2023-12-12T04:11:36Z,42.805,6.029,13.3051,4.60157,2470.847,2023-12-12T06:14:06Z
2023-12-12T04:14:39Z,42.805,6.029,13.3043,4.60152,2470.857,2023-12-12T06:17:09Z
2023-12-12T04:17:42Z,42.805,6.029,13.3050,4.60164,2470.833,2023-12-12T06:20:12Z
2023-12-12T04:20:45Z,42.805,6.029,13.3058,4.60152,2470.871,2023-12-12T06:23:15Z
2023-12-12T04:23:49Z,42.805,6.029,13.3048,4.60147,2470.857,2023-12-12T06:26:18Z
2023-12-12T04:26:52Z,42.805,6.029,13.3046,4.60162,2470.857,2023-12-12T06:29:21Z
2023-12-12T04:29:55Z,42.805,6.029,13.3048,4.60144,2470.833,2023-12-12T06:32:24Z
2023-12-12T04:32:58Z,42.805,6.029,13.3051,4.60145,2470.871,2023-12-12T06:35:27Z
2023-12-12T04:36:01Z,42.805,6.029,13.3048,4.60156,2470.833,2023-12-12T06:38:30Z
2023-12-12T04:39:04Z,42.805,6.029,13.3047,4.60162,2470.81,2023-12-12T06:41:34Z
2023-12-12T04:42:07Z,42.805,6.029,13.3050,4.60152,2470.847,2023-12-12T06:44:37Z
2023-12-12T04:45:10Z,42.805,6.029,13.3056,4.60157,2470.857,2023-12-12T06:47:40Z
2023-12-12T04:48:13Z,42.805,6.029,13.3069,4.60168,2470.833,2023-12-12T06:50:43Z
2023-12-12T04:51:16Z,42.805,6.029,13.3046,4.60140,2470.871,2023-12-12T06:53:46Z
2023-12-12T04:54:19Z,42.805,6.029,13.3054,4.60152,2470.894,2023-12-12T06:56:49Z
2023-12-12T04:57:23Z,42.805,6.029,13.3048,4.60140,2470.857,2023-12-12T06:59:52Z
2023-12-12T05:00:26Z,42.805,6.029,13.3061,4.60143,2470.88,2023-12-12T07:02:55Z
2023-12-12T05:03:29Z,42.805,6.029,13.3053,4.60146,2470.843,2023-12-12T07:05:58Z
2023-12-12T05:06:32Z,42.805,6.029,13.3048,4.60146,2470.88,2023-12-12T07:09:01Z
2023-12-12T05:09:35Z,42.805,6.029,13.3049,4.60140,2470.904,2023-12-12T07:12:04Z
2023-12-12T05:12:38Z,42.805,6.029,13.3052,4.60142,2470.857,2023-12-12T07:15:07Z
2023-12-12T05:15:41Z,42.805,6.029,13.3055,4.60150,2470.88,2023-12-12T07:18:11Z
2023-12-12T05:18:44Z,42.805,6.029,13.3052,4.60147,2470.927,2023-12-12T07:21:14Z
2023-12-12T05:21:47Z,42.805,6.029,13.3054,4.60144,2470.88,2023-12-12T07:24:17Z
2023-12-12T05:24:50Z,42.805,6.029,13.3051,4.60163,2470.857,2023-12-12T07:27:20Z
2023-12-12T05:27:53Z,42.805,6.029,13.3048,4.60142,2470.927,2023-12-12T07:30:23Z
2023-12-12T05:30:56Z,42.805,6.029,13.3046,4.60135,2470.904,2023-12-12T07:33:26Z
2023-12-12T05:34:00Z,42.805,6.029,13.3059,4.60146,2470.857,2023-12-12T07:36:29Z
2023-12-12T05:37:03Z,42.805,6.029,13.3048,4.60136,2470.88,2023-12-12T07:39:32Z
2023-12-12T05:40:06Z,42.805,6.029,13.3047,4.60136,2470.904,2023-12-12T07:42:35Z
2023-12-12T05:43:09Z,42.805,6.029,13.3048,4.60135,2470.904,2023-12-12T07:45:38Z
2023-12-12T05:46:12Z,42.805,6.029,13.3048,4.60137,2470.88,2023-12-12T07:48:41Z
2023-12-12T05:49:15Z,42.805,6.029,13.3046,4.60132,2470.904,2023-12-12T07:51:44Z
2023-12-12T05:52:18Z,42.805,6.029,13.3053,4.60139,2470.927,2023-12-12T07:54:48Z
2023-12-12T05:55:21Z,42.805,6.029,13.3052,4.60148,2470.927,2023-12-12T07:57:51Z
2023-12-12T05:58:24Z,42.805,6.029,13.3049,4.60141,2470.927,2023-12-12T08:00:54Z
2023-12-12T06:01:27Z,42.805,6.029,13.3046,4.60137,2470.927,2023-12-12T08:03:57Z
2023-12-12T06:04:30Z,42.805,6.029,13.3055,4.60157,2470.927,2023-12-12T08:07:00Z
2023-12-12T06:07:33Z,42.805,6.029,13.3054,4.60160,2470.94,2023-12-12T08:10:03Z
2023-12-12T06:10:37Z,42.805,6.029,13.3048,4.60133,2470.927,2023-12-12T08:13:06Z
2023-12-12T06:13:40Z,42.805,6.029,13.3046,4.60143,2470.904,2023-12-12T08:16:09Z
2023-12-12T06:16:43Z,42.805,6.029,13.3046,4.60135,2470.904,2023-12-12T08:19:12Z
2023-12-12T06:19:46Z,42.805,6.029,13.3050,4.60151,2470.964,2023-12-12T08:22:15Z
2023-12-12T06:22:49Z,42.805,6.029,13.3065,4.60159,2470.927,2023-12-12T08:25:18Z
2023-12-12T06:25:52Z,42.805,6.029,13.3044,4.60138,2470.927,2023-12-12T08:28:21Z
2023-12-12T06:28:55Z,42.805,6.029,13.3058,4.60163,2470.95,2023-12-12T08:31:25Z
2023-12-12T06:31:58Z,42.805,6.029,13.3054,4.60143,2470.927,2023-12-12T08:34:28Z
2023-12-12T06:35:01Z,42.805,6.029,13.3054,4.60137,2470.904,2023-12-12T08:37:31Z
2023-12-12T06:38:04Z,42.805,6.029,13.3053,4.60145,2470.973,2023-12-12T08:40:34Z
2023-12-12T06:41:07Z,42.805,6.029,13.3052,4.60148,2470.927,2023-12-12T08:43:37Z
2023-12-12T06:44:10Z,42.805,6.029,13.3055,4.60145,2470.95,2023-12-12T08:46:40Z
2023-12-12T06:47:14Z,42.805,6.029,13.3051,4.60133,2470.904,2023-12-12T08:49:43Z
2023-12-12T06:50:17Z,42.805,6.029,13.3048,4.60143,2470.95,2023-12-12T08:52:46Z
2023-12-12T06:53:20Z,42.805,6.029,13.3052,4.60140,2470.95,2023-12-12T08:55:49Z
2023-12-12T06:56:23Z,42.805,6.029,13.3059,4.60155,2470.927,2023-12-12T08:58:52Z
2023-12-12T06:59:26Z,42.805,6.029,13.3048,4.60146,2470.95,2023-12-12T09:01:55Z
2023-12-12T07:02:29Z,42.805,6.029,13.3046,4.60131,2470.927,2023-12-12T09:04:58Z
2023-12-12T07:05:32Z,42.805,6.029,13.3049,4.60135,2470.95,2023-12-12T09:08:02Z
2023-12-12T07:08:35Z,42.805,6.029,13.3061,4.60160,2470.95,2023-12-12T09:11:05Z
2023-12-12T07:11:38Z,42.805,6.029,13.3053,4.60162,2470.927,2023-12-12T09:14:08Z
2023-12-12T07:14:41Z,42.805,6.029,13.3048,4.60141,2470.904,2023-12-12T09:17:11Z
2023-12-12T07:17:44Z,42.805,6.029,13.3046,4.60132,2470.95,2023-12-12T09:20:14Z
2023-12-12T07:20:47Z,42.805,6.029,13.3055,4.60148,2470.964,2023-12-12T09:23:17Z
2023-12-12T07:23:51Z,42.805,6.029,13.3046,4.60132,2470.95,2023-12-12T09:26:20Z
2023-12-12T07:26:54Z,42.805,6.029,13.3050,4.60146,2470.927,2023-12-12T09:29:23Z
2023-12-12T07:29:57Z,42.805,6.029,13.3051,4.60148,2470.95,2023-12-12T09:32:26Z
2023-12-12T07:33:00Z,42.805,6.029,13.3054,4.60148,2470.95,2023-12-12T09:35:29Z
2023-12-12T07:36:03Z,42.805,6.029,13.3058,4.60162,2470.95,2023-12-12T09:38:32Z
2023-12-12T07:39:06Z,42.805,6.029,13.3058,4.60135,2470.927,2023-12-12T09:41:35Z
2023-12-12T07:42:09Z,42.805,6.029,13.3046,4.60134,2470.964,2023-12-12T09:44:38Z
2023-12-12T07:45:12Z,42.805,6.029,13.3055,4.60138,2470.964,2023-12-12T09:47:41Z
2023-12-12T07:48:15Z,42.805,6.029,13.3046,4.60149,2470.964,2023-12-12T09:50:44Z
2023-12-12T07:51:18Z,42.805,6.029,13.3056,4.60140,2470.964,2023-12-12T09:53:48Z
2023-12-12T07:54:21Z,42.805,6.029,13.3050,4.60145,2470.94,2023-12-12T09:56:51Z
2023-12-12T07:57:24Z,42.805,6.029,13.3062,4.60140,2470.964,2023-12-12T09:59:54Z
2023-12-12T08:00:27Z,42.805,6.029,13.3048,4.60150,2470.95,2023-12-12T10:02:57Z
2023-12-12T08:03:30Z,42.805,6.029,13.3057,4.60148,2470.95,2023-12-12T10:06:00Z
2023-12-12T08:06:33Z,42.805,6.029,13.3056,4.60166,2470.94,2023-12-12T10:09:03Z
2023-12-12T08:09:37Z,42.805,6.029,13.3061,4.60170,2470.904,2023-12-12T10:12:06Z
2023-12-12T08:12:40Z,42.805,6.029,13.3043,4.60133,2470.917,2023-12-12T10:15:09Z
2023-12-12T08:15:43Z,42.805,6.029,13.3051,4.60135,2470.94,2023-12-12T10:18:12Z
2023-12-12T08:18:46Z,42.805,6.029,13.3056,4.60158,2470.94,2023-12-12T10:21:15Z
2023-12-12T08:21:49Z,42.805,6.029,13.3055,4.60155,2470.927,2023-12-12T10:24:18Z
2023-12-12T08:24:52Z,42.805,6.029,13.3060,4.60158,2470.904,2023-12-12T10:27:22Z
2023-12-12T08:27:55Z,42.805,6.029,13.3056,4.60152,2470.927,2023-12-12T10:30:25Z
2023-12-12T08:30:58Z,42.805,6.029,13.3043,4.60143,2470.94,2023-12-12T10:33:28Z
2023-12-12T08:34:01Z,42.805,6.029,13.3056,4.60155,2470.927,2023-12-12T10:36:31Z
2023-12-12T08:37:04Z,42.805,6.029,13.3056,4.60158,2470.927,2023-12-12T10:39:34Z
2023-12-12T08:40:07Z,42.805,6.029,13.3067,4.60143,2470.927,2023-12-12T10:42:37Z
2023-12-12T08:43:11Z,42.805,6.029,13.3054,4.60149,2470.904,2023-12-12T10:45:40Z
2023-12-12T08:46:14Z,42.805,6.029,13.3055,4.60157,2470.904,2023-12-12T10:48:43Z
2023-12-12T08:49:17Z,42.805,6.029,13.3057,4.60165,2470.964,2023-12-12T10:51:46Z
2023-12-12T08:52:20Z,42.805,6.029,13.3063,4.60173,2470.904,2023-12-12T10:54:49Z
2023-12-12T08:55:23Z,42.805,6.029,13.3068,4.60175,2470.904,2023-12-12T10:57:52Z
2023-12-12T08:58:26Z,42.805,6.029,13.3055,4.60162,2470.917,2023-12-12T11:00:56Z
2023-12-12T09:01:29Z,42.805,6.029,13.3069,4.60172,2470.904,2023-12-12T11:03:59Z
2023-12-12T09:04:32Z,42.805,6.029,13.3063,4.60176,2470.917,2023-12-12T11:07:02Z
2023-12-12T09:07:35Z,42.805,6.029,13.3063,4.60155,2470.904,2023-12-12T11:10:05Z
2023-12-12T09:10:38Z,42.805,6.029,13.3046,4.60158,2470.89,2023-12-12T11:13:08Z
2023-12-12T09:13:41Z,42.805,6.029,13.3062,4.60178,2470.894,2023-12-12T11:16:11Z
2023-12-12T09:16:45Z,42.805,6.029,13.3056,4.60160,2470.904,2023-12-12T11:19:14Z
2023-12-12T09:19:48Z,42.805,6.029,13.3051,4.60150,2470.904,2023-12-12T11:22:17Z
2023-12-12T09:22:51Z,42.805,6.029,13.3067,4.60163,2470.88,2023-12-12T11:25:20Z
2023-12-12T09:25:54Z,42.805,6.029,13.3058,4.60188,2470.857,2023-12-12T11:28:23Z
2023-12-12T09:28:57Z,42.805,6.029,13.3063,4.60167,2470.857,2023-12-12T11:31:26Z
2023-12-12T09:31:59Z,42.805,6.029,13.3058,4.60156,2470.857,2023-12-12T11:34:28Z
2023-12-12T09:35:02Z,42.805,6.029,13.3063,4.60180,2470.857,2023-12-12T11:37:31Z
2023-12-12T09:38:05Z,42.805,6.029,13.3056,4.60175,2470.88,2023-12-12T11:40:34Z
2023-12-12T09:41:08Z,42.805,6.029,13.3057,4.60170,2470.917,2023-12-12T11:43:38Z
2023-12-12T09:44:11Z,42.805,6.029,13.3067,4.60189,2470.871,2023-12-12T11:46:41Z
2023-12-12T09:47:14Z,42.805,6.029,13.3068,4.60164,2470.894,2023-12-12T11:49:44Z
2023-12-12T09:50:17Z,42.805,6.029,13.3066,4.60180,2470.857,2023-12-12T11:52:47Z
2023-12-12T09:53:20Z,42.805,6.029,13.3062,4.60178,2470.857,2023-12-12T11:55:50Z
2023-12-12T09:56:23Z,42.805,6.029,13.3062,4.60187,2470.88,2023-12-12T11:58:53Z
2023-12-12T09:59:27Z,42.805,6.029,13.3058,4.60183,2470.857,2023-12-12T12:01:56Z
2023-12-12T10:02:30Z,42.805,6.029,13.3061,4.60202,2470.88,2023-12-12T12:04:59Z
2023-12-12T10:05:33Z,42.805,6.029,13.3073,4.60201,2470.857,2023-12-12T12:08:02Z
2023-12-12T10:08:36Z,42.805,6.029,13.3082,4.60149,2470.871,2023-12-12T12:11:05Z
2023-12-12T10:11:39Z,42.805,6.029,13.3076,4.60152,2470.857,2023-12-12T12:14:08Z
2023-12-12T10:14:42Z,42.805,6.029,13.3069,4.60184,2470.871,2023-12-12T12:17:12Z
2023-12-12T10:17:45Z,42.805,6.029,13.3067,4.60193,2470.894,2023-12-12T12:20:15Z
2023-12-12T10:20:48Z,42.805,6.029,13.3062,4.60181,2470.88,2023-12-12T12:23:18Z
2023-12-12T10:23:51Z,42.805,6.029,13.3066,4.60183,2470.88,2023-12-12T12:26:21Z
2023-12-12T10:26:54Z,42.805,6.029,13.3061,4.60183,2470.833,2023-12-12T12:29:24Z
2023-12-12T10:29:57Z,42.805,6.029,13.3071,4.60194,2470.857,2023-12-12T12:32:27Z
2023-12-12T10:33:01Z,42.805,6.029,13.3068,4.60190,2470.871,2023-12-12T12:35:30Z
2023-12-12T10:36:04Z,42.805,6.029,13.3071,4.60185,2470.894,2023-12-12T12:38:33Z
2023-12-12T10:39:07Z,42.805,6.029,13.3067,4.60187,2470.88,2023-12-12T12:41:36Z
2023-12-12T10:42:10Z,42.805,6.029,13.3089,4.60156,2470.88,2023-12-12T12:44:39Z
2023-12-12T10:45:13Z,42.805,6.029,13.3056,4.60142,2470.857,2023-12-12T12:47:42Z
2023-12-12T10:48:16Z,42.805,6.029,13.3071,4.60148,2470.847,2023-12-12T12:50:45Z
2023-12-12T10:51:19Z,42.805,6.029,13.3067,4.60193,2470.871,2023-12-12T12:53:49Z
2023-12-12T10:54:22Z,42.805,6.029,13.3067,4.60190,2470.833,2023-12-12T12:56:52Z
2023-12-12T10:57:25Z,42.805,6.029,13.3058,4.60155,2470.871,2023-12-12T12:59:55Z
2023-12-12T11:00:28Z,42.805,6.029,13.3061,4.60173,2470.857,2023-12-12T13:02:58Z
2023-12-12T11:03:31Z,42.805,6.029,13.3068,4.60181,2470.833,2023-12-12T13:06:01Z
2023-12-12T11:06:34Z,42.805,6.029,13.3076,4.60193,2470.833,2023-12-12T13:09:04Z
2023-12-12T11:09:38Z,42.805,6.029,13.3065,4.60198,2470.833,2023-12-12T13:12:07Z
2023-12-12T11:12:41Z,42.805,6.029,13.3081,4.60222,2470.824,2023-12-12T13:15:10Z
2023-12-12T11:15:44Z,42.805,6.029,13.3082,4.60158,2470.81,2023-12-12T13:18:13Z
2023-12-12T11:18:47Z,42.805,6.029,13.3073,4.60182,2470.833,2023-12-12T13:21:16Z
2023-12-12T11:21:50Z,42.805,6.029,13.3085,4.60175,2470.833,2023-12-12T13:24:19Z
2023-12-12T11:24:53Z,42.805,6.029,13.3071,4.60141,2470.871,2023-12-12T13:27:23Z
2023-12-12T11:27:56Z,42.805,6.029,13.3067,4.60146,2470.833,2023-12-12T13:30:26Z
2023-12-12T11:30:58Z,42.805,6.029,13.3070,4.60142,2470.824,2023-12-12T13:33:27Z
2023-12-12T11:34:01Z,42.805,6.029,13.3066,4.60125,2470.81,2023-12-12T13:36:30Z
2023-12-12T11:37:04Z,42.805,6.029,13.3079,4.60149,2470.81,2023-12-12T13:39:34Z
2023-12-12T11:40:07Z,42.805,6.029,13.3066,4.60129,2470.787,2023-12-12T13:42:37Z
2023-12-12T11:43:10Z,42.805,6.029,13.3058,4.60155,2470.81,2023-12-12T13:45:40Z
2023-12-12T11:46:13Z,42.805,6.029,13.3074,4.60192,2470.833,2023-12-12T13:48:43Z
2023-12-12T11:49:16Z,42.805,6.029,13.3071,4.60193,2470.824,2023-12-12T13:51:46Z
2023-12-12T11:52:19Z,42.805,6.029,13.3088,4.60209,2470.81,2023-12-12T13:54:49Z
2023-12-12T11:55:23Z,42.805,6.029,13.3070,4.60185,2470.777,2023-12-12T13:57:52Z
2023-12-12T11:58:26Z,42.805,6.029,13.3090,4.60204,2470.81,2023-12-12T14:00:55Z
2023-12-12T12:01:29Z,42.805,6.029,13.3083,4.60196,2470.777,2023-12-12T14:03:58Z
2023-12-12T12:04:32Z,42.805,6.029,13.3077,4.60175,2470.787,2023-12-12T14:07:01Z
2023-12-12T12:07:35Z,42.805,6.029,13.3096,4.60173,2470.824,2023-12-12T14:10:04Z
2023-12-12T12:10:38Z,42.805,6.029,13.3106,4.60166,2470.787,2023-12-12T14:13:08Z
2023-12-12T12:13:41Z,42.805,6.029,13.3069,4.60167,2470.8,2023-12-12T14:16:11Z
2023-12-12T12:16:44Z,42.805,6.029,13.3086,4.60174,2470.824,2023-12-12T14:19:14Z
2023-12-12T12:19:47Z,42.805,6.029,13.3097,4.60217,2470.787,2023-12-12T14:22:17Z
2023-12-12T12:22:50Z,42.805,6.029,13.3093,4.60197,2470.8,2023-12-12T14:25:20Z
2023-12-12T12:25:53Z,42.805,6.029,13.3071,4.60167,2470.787,2023-12-12T14:28:23Z
2023-12-12T12:28:57Z,42.805,6.029,13.3056,4.60193,2470.787,2023-12-12T14:31:26Z
2023-12-12T12:32:00Z,42.805,6.029,13.3085,4.60170,2470.777,2023-12-12T14:34:29Z
2023-12-12T12:35:03Z,42.805,6.029,13.3081,4.60199,2470.81,2023-12-12T14:37:32Z
2023-12-12T12:38:06Z,42.805,6.029,13.3060,4.60172,2470.763,2023-12-12T14:40:35Z
2023-12-12T12:41:09Z,42.805,6.029,13.3068,4.60202,2470.763,2023-12-12T14:43:38Z
2023-12-12T12:44:12Z,42.805,6.029,13.3074,4.60203,2470.787,2023-12-12T14:46:42Z
2023-12-12T12:47:15Z,42.805,6.029,13.3098,4.60189,2470.763,2023-12-12T14:49:45Z
2023-12-12T12:50:18Z,42.805,6.029,13.3084,4.60212,2470.777,2023-12-12T14:52:48Z
2023-12-12T12:53:21Z,42.805,6.029,13.3067,4.60174,2470.763,2023-12-12T14:55:51Z
2023-12-12T12:56:24Z,42.805,6.029,13.3081,4.60210,2470.763,2023-12-12T14:58:54Z
2023-12-12T12:59:27Z,42.805,6.029,13.3078,4.60163,2470.74,2023-12-12T15:01:57Z
2023-12-12T13:02:31Z,42.805,6.029,13.3084,4.60186,2470.787,2023-12-12T15:05:00Z
2023-12-12T13:05:34Z,42.805,6.029,13.3076,4.60218,2470.717,2023-12-12T15:08:03Z
2023-12-12T13:08:37Z,42.805,6.029,13.3091,4.60164,2470.754,2023-12-12T15:11:06Z
2023-12-12T13:11:40Z,42.805,6.029,13.3102,4.60211,2470.787,2023-12-12T15:14:09Z
2023-12-12T13:14:43Z,42.805,6.029,13.3093,4.60161,2470.754,2023-12-12T15:17:12Z
2023-12-12T13:17:46Z,42.805,6.029,13.3071,4.60190,2470.8,2023-12-12T15:20:16Z
2023-12-12T13:20:49Z,42.805,6.029,13.3071,4.60208,2470.787,2023-12-12T15:23:19Z
2023-12-12T13:23:52Z,42.805,6.029,13.3084,4.60220,2470.763,2023-12-12T15:26:22Z
2023-12-12T13:26:55Z,42.805,6.029,13.3071,4.60200,2470.763,2023-12-12T15:29:25Z
2023-12-12T13:29:58Z,42.805,6.029,13.3082,4.60236,2470.777,2023-12-12T15:32:28Z
2023-12-12T13:33:01Z,42.805,6.029,13.3078,4.60174,2470.777,2023-12-12T15:35:31Z
2023-12-12T13:36:05Z,42.805,6.029,13.3075,4.60179,2470.777,2023-12-12T15:38:34Z
2023-12-12T13:39:08Z,42.805,6.029,13.3078,4.60186,2470.74,2023-12-12T15:41:37Z
2023-12-12T13:42:11Z,42.805,6.029,13.3072,4.60185,2470.777,2023-12-12T15:44:40Z
2023-12-12T13:45:14Z,42.805,6.029,13.3071,4.60181,2470.763,2023-12-12T15:47:43Z
2023-12-12T13:48:17Z,42.805,6.029,13.3057,4.60193,2470.754,2023-12-12T15:50:46Z
2023-12-12T13:51:20Z,42.805,6.029,13.3084,4.60191,2470.754,2023-12-12T15:53:49Z
2023-12-12T13:54:23Z,42.805,6.029,13.3064,4.60210,2470.74,2023-12-12T15:56:53Z
2023-12-12T13:57:26Z,42.805,6.029,13.3078,4.60198,2470.74,2023-12-12T15:59:56Z
2023-12-12T14:00:29Z,42.805,6.029,13.3082,4.60199,2470.787,2023-12-12T16:02:59Z
2023-12-12T14:03:32Z,42.805,6.029,13.3076,4.60203,2470.74,2023-12-12T16:06:02Z
2023-12-12T14:06:35Z,42.805,6.029,13.3059,4.60219,2470.763,2023-12-12T16:09:05Z
2023-12-12T14:09:38Z,42.805,6.029,13.3066,4.60204,2470.754,2023-12-12T16:12:08Z
2023-12-12T14:12:42Z,42.805,6.029,13.3062,4.60181,2470.754,2023-12-12T16:15:11Z
2023-12-12T14:15:45Z,42.805,6.029,13.3067,4.60176,2470.754,2023-12-12T16:18:14Z
2023-12-12T14:18:48Z,42.805,6.029,13.3103,4.60176,2470.8,2023-12-12T16:21:17Z
2023-12-12T14:21:51Z,42.805,6.029,13.3099,4.60228,2470.787,2023-12-12T16:24:20Z
2023-12-12T14:24:54Z,42.805,6.029,13.3096,4.60189,2470.8,2023-12-12T16:27:23Z
2023-12-12T14:27:57Z,42.805,6.029,13.3088,4.60189,2470.717,2023-12-12T16:30:27Z
2023-12-12T14:31:00Z,42.805,6.029,13.3070,4.60201,2470.777,2023-12-12T16:33:30Z
2023-12-12T14:34:03Z,42.805,6.029,13.3080,4.60172,2470.763,2023-12-12T16:36:33Z
2023-12-12T14:37:06Z,42.805,6.029,13.3078,4.60186,2470.74,2023-12-12T16:39:36Z
2023-12-12T14:40:09Z,42.805,6.029,13.3080,4.60201,2470.8,2023-12-12T16:42:39Z
2023-12-12T14:43:12Z,42.805,6.029,13.3084,4.60180,2470.787,2023-12-12T16:45:42Z
2023-12-12T14:46:16Z,42.805,6.029,13.3083,4.60177,2470.8,2023-12-12T16:48:45Z
2023-12-12T14:49:19Z,42.805,6.029,13.3069,4.60163,2470.777,2023-12-12T16:51:48Z
2023-12-12T14:52:22Z,42.805,6.029,13.3085,4.60181,2470.8,2023-12-12T16:54:51Z
2023-12-12T14:55:25Z,42.805,6.029,13.3078,4.60174,2470.777,2023-12-12T16:57:54Z
2023-12-12T14:58:28Z,42.805,6.029,13.3077,4.60180,2470.8,2023-12-12T17:00:57Z
2023-12-12T15:01:31Z,42.805,6.029,13.3061,4.60173,2470.787,2023-12-12T17:04:01Z